Regional Weather Roundup
Issued by NWS

Current Version | Previous Version | Text Only | Print | Product List | Glossary On
Versions: 1 2 3 4 5 6 7 8 9 10 11 12 13 14 15 16 17 18 19 20 21 22 23 24 25 26 27 28 29 30 31 32 33 34 35 36 37 38 39 40 41 42 43 44 45 46 47 48 49 50
000
ASUS43 KMKX 280820
RWRWI

WISCONSIN REGIONAL WEATHER ROUNDUP
NATIONAL WEATHER SERVICE MILWAUKEE/SULLIVAN WI
300 AM CDT WED SEP 28 2022

NOTE: "FAIR" INDICATES FEW OR NO CLOUDS BELOW 12,000 FEET WITH NO
SIGNIFICANT WEATHER AND/OR OBSTRUCTIONS TO VISIBILITY.

WIZ001-002-006>008-014>016-023>028-280900-
NORTHWEST WISCONSIN

CITY           SKY/WX    TMP DP  RH WIND       PRES   REMARKS
SUPERIOR ARPT  CLEAR     28  27  97 CALM      30.46S
ASHLAND        CLEAR     30  29  96 W6        30.44R WCI  24
HAYWARD        PTCLDY    27  25  92 CALM      30.45R
SIREN          CLEAR     28  26  91 CALM      30.46R
CUMBERLAND     PTCLDY    32  32 100 CALM      30.44R
RICE LAKE      CLEAR     32  32 100 CALM      30.46R
CHETEK         FOG       36  34  94 CALM      30.45R VSB 1/4
LADYSMITH      CLEAR     31  31 100 CALM      30.46R
EAU CLAIRE     PTCLDY    33  31  92 CALM      30.44R
MENOMONIE      FOG       37  37 100 CALM      30.45S VSB 3/4
NEW RICHMOND   CLEAR     32  32  99 CALM      30.45R
OSCEOLA        FOG       32  32 100 CALM      30.48S VSB 1/2
$$

WIZ003>005-009-010-017-018-280900-
NORTH CENTRAL WISCONSIN

CITY           SKY/WX    TMP DP  RH WIND       PRES   REMARKS
MANITOWISH WTR CLOUDY    31  31 100 CALM      30.42R
ARBOR VITAE    MOCLDY    34  33  96 CALM      30.41S
WOODRUFF       MOCLDY    34  33  96 CALM      30.41S
RHINELANDER    PTCLDY    32  29  88 CALM      30.41R
EAGLE RIVER    CLEAR     30  30 100 CALM      30.40R
LAND O LAKES   PTCLDY    31  31 100 CALM      30.42R
PHILLIPS       CLEAR     26  26 100 CALM      30.42S
TOMAHAWK       CLOUDY    29  28  95 CALM      30.43R
MEDFORD          N/A     30  30 100 CALM      30.42R
MERRILL        MOCLDY    29  29 100 CALM      30.42R
$$

WIZ029-030-035-036-043>047-280900-
CENTRAL WISCONSIN

CITY           SKY/WX    TMP DP  RH WIND       PRES   REMARKS
WAUSAU         CLEAR     36  32  85 NW5       30.41R WCI  32
MOSINEE        CLEAR     34  32  93 NW6       30.43R WCI  29
MARSHFIELD     CLEAR     33  31  92 N7        30.42R WCI  27
STEVENS POINT  CLEAR     35  32  89 N3        30.43R
WAUPACA          N/A     38  36  90 NW5       30.41S WCI  35
WAUTOMA        CLEAR     38  36  92 NW3       30.42R
WISC RAPIDS    CLEAR     36  33  89 CALM      30.43R
CAMP DOUGLAS   CLEAR     35  33  94 CALM      30.41R
$$

WIZ011>013-019>022-031-037>040-048>050-280900-
NORTHEAST WISCONSIN

CITY           SKY/WX    TMP DP  RH WIND       PRES   REMARKS
ANTIGO         CLEAR     29  28  98 NW5       30.40S WCI  24
SHAWANO        CLEAR     37  36  95 NW7       30.40R WCI  32
OCONTO         CLEAR     38  35  90 NW3       30.38R
STURGEON BAY   CLOUDY    45  39  79 N16       30.36R
GREEN BAY      CLEAR     42  35  76 NW9       30.37R
MANITOWOC      PTCLDY    43  36  76 NW8       30.36R
APPLETON       CLEAR     37  34  87 NW8       30.37S WCI  31
CLINTONVILLE   CLEAR     38  34  85 NW9       30.42R WCI  32
OSHKOSH        CLEAR     42  35  76 NW8       30.38R
$$

WIZ032>034-041-042-053>061-280900-
SOUTHWEST WISCONSIN

CITY           SKY/WX    TMP DP  RH WIND       PRES   REMARKS
LA CROSSE      CLEAR     40  37  89 N5        30.44R
SPARTA         CLEAR     29  29  99 CALM      30.44R
VIROQUA        CLEAR     37  37 100 CALM      30.42R
BOSCOBEL       MOCLDY    33  33 100 CALM      30.44R FOG
PRAIRIE DU CHI CLEAR     39  36  87 CALM      30.42S
PLATTEVILLE    CLEAR     36  35  96 N7        30.41R WCI  30
$$

WIZ056-057-062-063-064-067-068-280900-
SOUTH CENTRAL WISCONSIN

CITY           SKY/WX    TMP DP  RH WIND       PRES   REMARKS
REEDSBURG      CLEAR     40  37  87 N3        30.41S
BARABOO/DELLS  PTCLDY    39  36  89 CALM      30.41S
LONE ROCK      MOCLDY    45  38  76 CALM      30.42R
MINERAL POINT  CLEAR     37  37 100 N5        30.40S WCI  34
MADISON        CLEAR     41  36  82 N8        30.39R
MIDDLETON      PTCLDY    42  38  87 N5        30.40S
WATERTOWN      CLOUDY    45  38  78 N8        30.37R
MONROE         CLEAR     41  38  89 N8        30.38R
JANESVILLE     CLEAR     45  39  81 N5        30.37R
$$

WIZ051-052-058>065-066-070>072-280900-
SOUTHEAST WISCONSIN

CITY           SKY/WX    TMP DP  RH WIND       PRES   REMARKS
MILWAUKEE      CLOUDY    49  39  68 NW12      30.34R
WAUKESHA       CLOUDY    41  37  87 NW6       30.37R
MILWAUKEE/TIMM PTCLDY    43  36  75 N10       30.36S
RACINE         CLOUDY    48  40  73 NW13      30.35R
KENOSHA        MOCLDY    49  39  68 N9G18     30.34R
FOND DU LAC    CLOUDY    44  35  70 NW10      30.38R
SHEBOYGAN      CLOUDY    44  38  79 NW9       30.36R
WEST BEND      PTCLDY    41  37  87 NW6       30.37R
JUNEAU         CLOUDY    42  37  82 N8        30.39R
$$

LSZ147-162-280900-
LAKE SUPERIOR

STATION/POSITION TIME  TEMP    WIND        PRES    WAVE
                       AIR SEA DIR/SP/G            HT/PER
                 (UTC) (F)     (DEG/KT/KT) (MB)    (FT/S)
W MID LAKE BUOY  0800      53   40/ 10/ 14 1030.4
DEVILS ISLAND    0800   47      30/  9/ 11 1031.5R
PORT WING        0740   34     150/  3/  4 1030.8R
SAXON HARBOR     0740   36     180/  6/  8 1029.8R
$$

LMZ867-665-643>646-280900-
LAKE MICHIGAN

STATION/POSITION TIME  TEMP    WIND        PRES    WAVE
                       AIR SEA DIR/SP/G            HT/PER
                 (UTC) (F)     (DEG/KT/KT) (MB)    (FT/S)
CHAMBERS ISLAND  0740   45     280/ 19/ 22   N/A
N MID LAKE BUOY  0800   50 62  350/ 17/ 23 1026.5
NORTHPORT PIER   0700          320/ 22/ 25 1027.4
KEWAUNEE LAKESHO 0736   44     330/  6/ 11 1026.6R
SHEBOYGAN LAKESH 0800   46     320/ 13/ 15 1028.3R
PORT WASHINGTON  0740   47     330/  5/ 12 1028.8R
ATWATER BUOY     0800   51     350/ 17/ 23 1029.4    6/ 7
MILWAUKEE LAKESH 0800   48     340/ 14/ 17   N/A
S MID LAKE BUOY  0800   52      20/ 19/ 25 1026.4
KENOSHA   LAKESH 0800   49     320/ 12/ 16 1026.8
$$

TC  - TEMPERATURE IN CELSIUS
VSB - VISIBILITY IN STATUTE MILES
WCI - WIND CHILL INDEX
HX  - HEAT INDEX




USA.gov is the U.S. government's official web portal to all federal, state and local government web resources and services.